Location: Hylvaty SDH
(49.9612°N, 16.4057°E)
Time: 22:46:43
(UTC+02:00)

A-11 Canister half - Pass Details

Date: 02 October 2020
Orbit: 1515 x 1685 km, 47.2° (Epoch: 20 October)

Event Time Altitude Azimuth Distance (km) Brightness Sun altitude
Exits shadow 04:54:06 23° 221° (SW) 2,866 9.9 -20.2°
Maximum altitude 05:00:12 55° 154° (SSE) 1,805 9.4 -19.3°
Drops below altitude 10° 05:09:10 10° 80° (E) 3,691 12.3 -17.9°
Sets 05:12:15 0° 76° (ENE) 4,666 13.3 -17.4°
